Location: ??????????
(54.8537°N, 38.8755°E)
Time: 02:40:09
(UTC+00:00)

Vanguard 2 Rocket - Pass Details

Date: 14 September 2024
Orbit: 553 x 3298 km, 32.9° (Epoch: 14 October)

Event Time Altitude Azimuth Distance (km) Brightness Sun altitude
Exits shadow 01:42:59 11° 235° (SW) 4,800 9.9 -10.9°
Maximum altitude 01:54:59 33° 180° (S) 4,175 10.1 -9.3°
Drops below altitude 10° 02:10:55 10° 127° (SE) 6,247 11.7 -7.1°
Sets 02:16:34 0° 120° (ESE) 7,239 12.3 -6.4°
